Location: Newark
(52.1752°N, 10.4140°W)
Time: 05:03:23
(UTC+00:00)

N. Korean satellite - Pass Details

Date: 15 November 2019
Orbit: 456 x 506 km, 97.2° (Epoch: 07 December)

Event Time Altitude Azimuth Distance (km) Brightness Sun altitude
Rises 18:28:35 0° 198° (SSW) 2,552 10.6 -14.9°
Reaches altitude 10° 18:30:57 10° 213° (SSW) 1,686 9.9 -15.3°
Maximum altitude 18:33:53 23° 267° (W) 1,097 9.3 -15.7°
Drops below altitude 10° 18:36:54 10° 322° (NW) 1,718 9.7 -16.2°
Sets 18:39:20 0° 337° (NNW) 2,615 10.5 -16.5°
